STARLINK-3309 (50158 NORAD) Tracking and Keplerian Element Data
This shows tracking and keplerian element data for the satellite.
Feedback or suggestion? Click here.
Element | Value |
Catalog | 50158 |
Name | STARLINK-3309 |
Epoch Orbit | 130 |
Epoch Day | 140.58334491 |
Epoch Year | 2022 |
RAAN | 15.0746 |
Inclination | 53.2161 |
Eccentricity | 0.0002065 |
Argument of Perigee | 36.7135 |
Mean Anonmoly | 354.8062 |
Mean Motion | 15.08838689 |
Decay Rate | 3.088E-05 |
L1 | 1 50158U 21125C 22140.58334491 .00003088 00000+0 21202-3 0 9994 |
L2 | 2 50158 53.2161 15.0746 0002065 36.7135 354.8062 15.08838689 1308 |
Live tracking and technical data element details for STARLINK-3309 (NORAD 50158). STARLINK-3309 can be tracked NOW for your location showing map with azimuth and elevation plus other details from your city location.
Track the satellite on the map from your city or location and see movement details for azimuth, elevation, latitude, longitude, range, height, and movement on the map or in text.
IsCatalogInMostPopularTable: catalog: 50158, numindb: 28
Update: records affected: 1
GetName: 50158 STARLINK-3309
Hit Count: updated at: Mon, 23 May 2022 21:43:21 GMT